Langdon, ND

8:17 AM CDT on March 28, 2017 (GMT -0500)
Langdon

Weather History for KD55 - September, 2013

Change the Weather History Date:

Monday, September 9, 2013

  Actual Average (KDVL) Record (KDVL)
Temperature  
Mean Temperature 60 °F -  
Max Temperature 62 °F 72 °F 92 °F (1982)
Min Temperature 57 °F 47 °F 35 °F (1967)
Degree Days  
Heating Degree Days 6    
Growing Degree Days 10 (Base 50)    
Moisture  
Dew Point 45 °F    
Average Humidity 57    
Maximum Humidity 67    
Minimum Humidity 55    
Precipitation  
Precipitation 0.24 in - - ()
Sea Level Pressure  
Sea Level Pressure 29.76 in    
Wind  
Wind Speed 6 mph (NE)    
Max Wind Speed 14 mph    
Max Gust Speed -    
Visibility 5 miles    
Events Rain , Thunderstorm    
Averages and records for this station are not official NWS values.
T = Trace of Precipitation, MM = Missing Value Source: NWS Daily Summary

Daily Weather History Graph

Daily Weather History Graph

Search for Another Location

Airport or City:

Trip Planner

Search our weather history database for the weather conditions in past years. The results will help you decide how hot, cold, wet, or windy it might be!

Date:

Astronomy

Sep. 09, 2013 Rise Set
Actual Time 7:02 AM CDT 7:58 PM CDT
Civil Twilight 6:30 AM CDT 8:30 PM CDT
Nautical Twilight 5:51 AM CDT 9:08 PM CDT
Astronomical Twilight 5:10 AM CDT 9:49 PM CDT
Moon 11:51 AM CDT (9/9) 9:48 PM CDT (9/9)
Length of Visible Light 14h 00m
Length of Day
12h 56m
Waxing Crescent, 19% of the Moon is Illuminated
Sep 9
Waxing Crescent
Sep 12
First Quarter
Sep 19
Full
Sep 26
Last Quarter
Oct 4
New

Hourly Weather History & Observations

Time (CDT) Temp. Dew Point Humidity Pressure Visibility Wind Dir Wind Speed Gust Speed Precip Events Conditions
12:15 AM 59.0 °F 48.2 °F 67% 29.84 in 0.2 mi SE 5.8 mph - N/A   Haze
12:35 AM 59.0 °F 46.4 °F 63% 29.84 in 0.5 mi SSE 5.8 mph - N/A   Haze
12:55 AM 59.0 °F 44.6 °F 59% 29.84 in 0.2 mi SSE 8.1 mph - N/A   Haze
1:15 AM 59.0 °F 44.6 °F 59% 29.82 in 0.2 mi SE 6.9 mph - N/A   Haze
1:35 AM 59.0 °F 44.6 °F 59% 29.82 in 0.5 mi SE 5.8 mph - N/A   Haze
1:55 AM 59.0 °F 44.6 °F 59% 29.82 in 1.2 mi SSE 8.1 mph - N/A   Haze
2:15 AM 59.0 °F 44.6 °F 59% 29.80 in 0.5 mi ESE 5.8 mph - N/A   Haze
2:35 AM 59.0 °F 44.6 °F 59% 29.80 in 0.5 mi SSE 5.8 mph - N/A   Haze
2:55 AM 59.0 °F 44.6 °F 59% 29.79 in 0.2 mi SSE 5.8 mph - N/A   Haze
3:15 AM 59.0 °F 44.6 °F 59% 29.75 in 0.5 mi ESE 4.6 mph - N/A   Haze
3:35 AM 59.0 °F 44.6 °F 59% 29.75 in 0.2 mi SE 5.8 mph - N/A   Haze
3:55 AM 59.0 °F 44.6 °F 59% 29.75 in 0.2 mi Calm Calm - N/A   Haze
4:15 AM 59.0 °F 44.6 °F 59% 29.75 in 0.2 mi Calm Calm - N/A   Haze
4:35 AM 59.0 °F 44.6 °F 59% 29.76 in 0.2 mi Calm Calm - N/A   Haze
4:55 AM 59.0 °F 44.6 °F 59% 29.76 in 0.2 mi NE 4.6 mph - N/A   Haze
5:15 AM 59.0 °F 44.6 °F 59% 29.77 in 0.5 mi East 3.5 mph - 0.01 in Rain Light Rain
5:35 AM 59.0 °F 44.6 °F 59% 29.77 in 1.0 mi East 5.8 mph - 0.04 in Rain Light Rain
5:55 AM 59.0 °F 44.6 °F 59% 29.75 in 2.0 mi East 8.1 mph - 0.06 in Rain Light Rain
6:15 AM 59.0 °F 44.6 °F 59% 29.74 in 3.0 mi East 8.1 mph - 0.01 in Rain Light Rain
6:35 AM 59.0 °F 44.6 °F 59% 29.73 in 5.0 mi East 9.2 mph - 0.02 in Rain Light Rain
6:55 AM 59.0 °F 44.6 °F 59% 29.72 in 5.0 mi ENE 8.1 mph - 0.04 in Rain Light Rain
7:15 AM 59.0 °F 44.6 °F 59% 29.71 in 7.0 mi ENE 10.4 mph - N/A Rain Light Rain
7:35 AM 59.0 °F 44.6 °F 59% 29.71 in 5.0 mi NE 9.2 mph - N/A Rain Light Rain
7:55 AM 59.0 °F 44.6 °F 59% 29.70 in 4.0 mi NE 10.4 mph - N/A Rain Light Rain
8:15 AM 59.0 °F 44.6 °F 59% 29.69 in 6.0 mi NE 11.5 mph - N/A   Haze
8:35 AM 59.0 °F 44.6 °F 59% 29.69 in 0.5 mi NE 13.8 mph - N/A   Haze
8:55 AM 59.0 °F 44.6 °F 59% 29.70 in 0.8 mi NE 11.5 mph - N/A   Haze
9:15 AM 59.0 °F 44.6 °F 59% 29.71 in 5.0 mi ENE 6.9 mph - N/A   Haze
9:35 AM 59.0 °F 44.6 °F 59% 29.72 in 5.0 mi NE 8.1 mph - N/A   Haze
9:55 AM 59.0 °F 44.6 °F 59% 29.72 in 6.0 mi NE 6.9 mph - N/A   Haze
10:15 AM 59.0 °F 44.6 °F 59% 29.72 in 5.0 mi ENE 6.9 mph - N/A   Haze
10:35 AM 60.8 °F 44.6 °F 55% 29.72 in 8.0 mi ENE 9.2 mph - N/A   Overcast
10:55 AM 60.8 °F 44.6 °F 55% 29.72 in 9.0 mi ENE 9.2 mph - N/A   Overcast
11:15 AM 60.8 °F 44.6 °F 55% 29.73 in 10.0 mi ENE 10.4 mph - N/A   Overcast
11:35 AM 60.8 °F 44.6 °F 55% 29.73 in 9.0 mi ENE 6.9 mph - N/A   Overcast
11:55 AM 60.8 °F 44.6 °F 55% 29.73 in 3.0 mi NE 8.1 mph - N/A   Haze
12:15 PM 60.8 °F 44.6 °F 55% 29.74 in 3.0 mi NE 9.2 mph - N/A   Haze
12:35 PM 60.8 °F 44.6 °F 55% 29.74 in 7.0 mi NE 8.1 mph - N/A   Overcast
12:55 PM 59.0 °F 44.6 °F 59% 29.74 in 1.5 mi NNE 6.9 mph - 0.02 in Rain Light Rain
1:15 PM 60.8 °F 44.6 °F 55% 29.74 in 3.0 mi NNE 9.2 mph - N/A Rain Light Rain
1:35 PM 60.8 °F 44.6 °F 55% 29.73 in 2.5 mi NE 8.1 mph - 0.04 in Rain Light Rain
1:55 PM 62.6 °F 46.4 °F 55% 29.72 in 7.0 mi NNE 10.4 mph - 0.05 in Rain Light Rain
2:15 PM 62.6 °F 46.4 °F 55% 29.72 in 5.0 mi NNE 9.2 mph - 0.01 in Rain Light Rain
2:35 PM 62.6 °F 46.4 °F 55% 29.73 in 10.0 mi NNE 6.9 mph - 0.01 in Rain Light Rain
2:55 PM 62.6 °F 46.4 °F 55% 29.74 in 10.0 mi North 9.2 mph - 0.01 in   Overcast
3:15 PM 62.6 °F 46.4 °F 55% 29.74 in 10.0 mi North 8.1 mph - N/A   Overcast
3:35 PM 62.6 °F 46.4 °F 55% 29.74 in 10.0 mi NNW 6.9 mph - N/A   Overcast
3:55 PM 62.6 °F 46.4 °F 55% 29.74 in 10.0 mi North 8.1 mph - N/A   Overcast
4:15 PM 62.6 °F 46.4 °F 55% 29.74 in 10.0 mi North 8.1 mph - N/A   Overcast
4:35 PM 62.6 °F 46.4 °F 55% 29.75 in 10.0 mi North 6.9 mph - N/A Rain Light Rain
4:55 PM 62.6 °F 46.4 °F 55% 29.75 in 10.0 mi North 5.8 mph - N/A   Overcast
5:15 PM 62.6 °F 46.4 °F 55% 29.75 in 10.0 mi North 8.1 mph - N/A   Overcast
5:35 PM 62.6 °F 46.4 °F 55% 29.75 in 10.0 mi NNW 5.8 mph - N/A   Overcast
5:55 PM 62.6 °F 46.4 °F 55% 29.76 in 10.0 mi North 5.8 mph - N/A   Overcast
6:15 PM 62.6 °F 46.4 °F 55% 29.76 in 10.0 mi NNW 3.5 mph - N/A   Overcast
6:35 PM 62.6 °F 46.4 °F 55% 29.76 in 10.0 mi NNW 4.6 mph - N/A   Overcast
6:55 PM 62.6 °F 46.4 °F 55% 29.76 in 10.0 mi North 4.6 mph - N/A   Overcast
7:15 PM 62.6 °F 46.4 °F 55% 29.77 in 10.0 mi NNW 4.6 mph - N/A   Overcast
7:35 PM 62.6 °F 46.4 °F 55% 29.77 in 10.0 mi NW 4.6 mph - N/A   Overcast
7:55 PM 62.6 °F 46.4 °F 55% 29.78 in 10.0 mi North 3.5 mph - N/A   Overcast
8:15 PM 62.6 °F 46.4 °F 55% 29.78 in 10.0 mi NNW 3.5 mph - N/A   Overcast
8:35 PM 62.6 °F 46.4 °F 55% 29.78 in 10.0 mi North 3.5 mph - N/A   Overcast
8:55 PM 62.6 °F 46.4 °F 55% 29.77 in 10.0 mi Calm Calm - N/A   Overcast
9:15 PM 60.8 °F 44.6 °F 55% 29.78 in 10.0 mi NNE 3.5 mph - N/A   Mostly Cloudy
9:35 PM 59.0 °F 44.6 °F 59% 29.78 in 10.0 mi ENE 3.5 mph - N/A   Clear
9:55 PM 57.2 °F 42.8 °F 59% 29.79 in 7.0 mi Calm Calm - N/A   Partly Cloudy
10:15 PM 57.2 °F 41.0 °F 55% 29.78 in 5.0 mi Calm Calm - N/A   Haze
10:35 PM 57.2 °F 41.0 °F 55% 29.79 in 7.0 mi SE 3.5 mph - N/A   Overcast
10:55 PM 57.2 °F 41.0 °F 55% 29.80 in 4.0 mi SW 5.8 mph - N/A Thunderstorm Haze
11:15 PM 59.0 °F 44.6 °F 59% 29.81 in 1.5 mi Calm Calm - 0.03 in Rain , Thunderstorm Light Thunderstorms and Rain
11:35 PM 59.0 °F 44.6 °F 59% 29.82 in 3.0 mi NW 4.6 mph - 0.05 in Rain , Thunderstorm Light Rain
11:55 PM 59.0 °F 44.6 °F 59% 29.79 in 4.0 mi ENE 4.6 mph - 0.06 in Rain , Thunderstorm Light Rain